Time,TemperatureF,DewpointF,PressureIn,WindDirection,WindDirectionDegrees,WindSpeedMPH,WindSpeedGustMPH,Humidity,HourlyPrecipIn,Conditions,Clouds,dailyrainin,SoftwareType,DateUTC
2013-01-25 00:00:00,28.2,20.4,30.11,SSE,159,1.0,7.0,72,0.00,,OVC017,0.00,VWS V14.01,2013-01-25 06:00:00,
2013-01-25 00:05:00,28.2,20.4,30.11,ESE,115,3.0,4.0,72,0.00,,OVC017,0.00,VWS V14.01,2013-01-25 06:05:00,
2013-01-25 00:10:00,28.2,20.4,30.10,SE,127,0.0,4.0,72,0.00,,OVC017,0.00,VWS V14.01,2013-01-25 06:10:00,
2013-01-25 00:15:00,28.3,20.4,30.10,SSE,155,1.0,4.0,72,0.00,,OVC017,0.00,VWS V14.01,2013-01-25 06:15:00,
2013-01-25 00:20:00,28.3,20.1,30.10,ESE,121,0.0,4.0,71,0.00,,OVC017,0.00,VWS V14.01,2013-01-25 06:20:00,
2013-01-25 00:25:00,28.3,20.1,30.10,ESE,109,1.0,4.0,71,0.00,,OVC017,0.00,VWS V14.01,2013-01-25 06:25:00,
2013-01-25 00:30:00,28.4,20.2,30.10,ESE,123,2.0,2.0,71,0.00,,OVC017,0.00,VWS V14.01,2013-01-25 06:30:00,
2013-01-25 00:35:00,28.4,20.2,30.10,SE,142,1.0,5.0,71,0.00,,OVC017,0.00,VWS V14.01,2013-01-25 06:35:00,
2013-01-25 00:41:00,28.4,19.9,30.09,SE,132,0.0,5.0,70,0.00,,OVC019,0.00,VWS V14.01,2013-01-25 06:41:00,
2013-01-25 00:46:00,28.5,20.0,30.09,SE,144,1.0,5.0,70,0.00,,OVC019,0.00,VWS V14.01,2013-01-25 06:46:00,
2013-01-25 00:51:00,28.5,20.0,30.09,SE,126,2.0,5.0,70,0.00,,OVC019,0.00,VWS V14.01,2013-01-25 06:51:00,
2013-01-25 00:56:00,28.5,20.0,30.09,SE,134,0.0,5.0,70,0.00,,OVC019,0.00,VWS V14.01,2013-01-25 06:56:00,
2013-01-25 01:00:00,29.0,20.5,30.10,WNW,288,0.0,4.0,70,0.00,,CLR,0.00,VWS V14.01,2013-01-25 07:00:00,
2013-01-25 01:01:00,28.5,20.0,30.08,SSE,148,0.0,1.0,70,0.00,,OVC019,0.00,VWS V14.01,2013-01-25 07:01:00,
2013-01-25 01:06:00,28.5,20.0,30.08,SE,138,1.0,2.0,70,0.00,,OVC019,0.00,VWS V14.01,2013-01-25 07:06:00,
2013-01-25 01:11:00,28.5,20.0,30.08,ESE,107,0.0,2.0,70,0.00,,OVC019,0.00,VWS V14.01,2013-01-25 07:11:00,
2013-01-25 01:16:00,28.6,20.1,30.07,ESE,104,0.0,2.0,70,0.00,,OVC019,0.00,VWS V14.01,2013-01-25 07:16:00,
2013-01-25 01:22:00,28.6,19.7,30.08,ESE,111,0.0,2.0,69,0.00,,OVC019,0.00,VWS V14.01,2013-01-25 07:22:00,
2013-01-25 01:27:00,28.6,19.7,30.08,ESE,111,0.0,2.0,69,0.00,,OVC019,0.00,VWS V14.01,2013-01-25 07:27:00,
2013-01-25 01:30:00,29.0,20.5,30.08,NE,41,0.0,4.0,70,0.00,,CLR,0.00,VWS V14.01,2013-01-25 07:30:00,
2013-01-25 01:32:00,28.7,19.8,30.09,NE,52,0.0,0.0,69,0.00,,OVC019,0.00,VWS V14.01,2013-01-25 07:32:00,
2013-01-25 01:37:00,28.8,19.9,30.09,NNE,27,0.0,1.0,69,0.00,,OVC019,0.00,VWS V14.01,2013-01-25 07:37:00,
2013-01-25 01:42:00,28.8,19.9,30.09,NNE,27,0.0,1.0,69,0.00,,OVC021,0.00,VWS V14.01,2013-01-25 07:42:00,
2013-01-25 01:47:00,28.8,19.9,30.10,NNW,333,2.0,2.0,69,0.00,,OVC021,0.00,VWS V14.01,2013-01-25 07:47:00,
2013-01-25 01:52:00,28.8,19.9,30.10,NNW,332,0.0,3.0,69,0.00,,OVC021,0.00,VWS V14.01,2013-01-25 07:52:00,
2013-01-25 01:57:00,28.9,20.4,30.11,NNW,328,2.0,4.0,70,0.00,,OVC021,0.00,VWS V14.01,2013-01-25 07:57:00,
2013-01-25 02:00:00,28.9,20.7,30.07,NW,322,0.0,2.0,71,0.00,,CLR,0.00,VWS V14.01,2013-01-25 08:00:00,
2013-01-25 02:02:00,29.0,20.5,30.10,NNW,327,1.0,1.0,70,0.00,,OVC021,0.00,VWS V14.01,2013-01-25 08:02:00,
2013-01-25 02:07:00,29.0,20.8,30.10,NNW,329,2.0,4.0,71,0.00,,OVC021,0.00,VWS V14.01,2013-01-25 08:07:00,
2013-01-25 02:13:00,29.0,20.5,30.10,NW,311,2.0,4.0,70,0.00,,OVC021,0.00,VWS V14.01,2013-01-25 08:13:00,
2013-01-25 02:18:00,29.0,20.8,30.09,NNE,13,0.0,4.0,71,0.00,,OVC021,0.00,VWS V14.01,2013-01-25 08:18:00,
2013-01-25 02:23:00,29.0,20.8,30.09,NNW,347,2.0,4.0,71,0.00,,OVC021,0.00,VWS V14.01,2013-01-25 08:23:00,
2013-01-25 02:28:00,29.0,20.8,30.08,NE,41,0.0,4.0,71,0.00,,OVC021,0.00,VWS V14.01,2013-01-25 08:28:00,
2013-01-25 02:30:00,28.9,20.7,30.05,SSW,203,0.0,3.0,71,0.00,,CLR,0.00,VWS V14.01,2013-01-25 08:30:00,
2013-01-25 02:33:00,29.0,20.5,30.08,North,360,0.0,1.0,70,0.00,,OVC021,0.00,VWS V14.01,2013-01-25 08:33:00,
2013-01-25 02:38:00,28.9,20.7,30.08,NNW,327,0.0,1.0,71,0.00,,OVC021,0.00,VWS V14.01,2013-01-25 08:38:00,
2013-01-25 02:43:00,28.9,20.4,30.07,NNW,327,0.0,1.0,70,0.00,,OVC021,0.00,VWS V14.01,2013-01-25 08:43:00,
2013-01-25 02:48:00,28.9,20.4,30.07,NNW,327,0.0,1.0,70,0.00,,OVC021,0.00,VWS V14.01,2013-01-25 08:48:00,
2013-01-25 02:54:00,28.8,20.3,30.07,NNW,327,0.0,1.0,70,0.00,,OVC021,0.00,VWS V14.01,2013-01-25 08:54:00,
2013-01-25 02:59:00,28.9,20.7,30.07,NW,322,0.0,2.0,71,0.00,,OVC021,0.00,VWS V14.01,2013-01-25 08:59:00,
2013-01-25 03:00:00,29.1,21.2,30.05,SSW,201,0.0,1.0,72,0.00,,CLR,0.00,VWS V14.01,2013-01-25 09:00:00,
2013-01-25 03:04:00,28.9,20.7,30.07,NW,320,1.0,1.0,71,0.00,,OVC021,0.00,VWS V14.01,2013-01-25 09:04:00,
2013-01-25 03:09:00,28.9,20.7,30.06,NW,307,0.0,3.0,71,0.00,,OVC021,0.00,VWS V14.01,2013-01-25 09:09:00,
2013-01-25 03:14:00,28.9,20.7,30.06,NNW,327,2.0,3.0,71,0.00,,OVC021,0.00,VWS V14.01,2013-01-25 09:14:00,
2013-01-25 03:19:00,28.9,20.7,30.06,NNW,327,0.0,3.0,71,0.00,,OVC021,0.00,VWS V14.01,2013-01-25 09:19:00,
2013-01-25 03:24:00,28.9,20.7,30.06,NW,317,0.0,3.0,71,0.00,,OVC021,0.00,VWS V14.01,2013-01-25 09:24:00,
2013-01-25 03:29:00,28.9,20.7,30.05,SSW,203,0.0,3.0,71,0.00,,OVC021,0.00,VWS V14.01,2013-01-25 09:29:00,
2013-01-25 03:30:00,28.8,22.8,30.05,South,182,0.0,3.0,78,0.00,,CLR,0.00,VWS V14.01,2013-01-25 09:30:00,
2013-01-25 03:35:00,29.0,20.8,30.05,SSW,201,0.0,1.0,71,0.00,,OVC021,0.00,VWS V14.01,2013-01-25 09:35:00,
2013-01-25 03:40:00,29.0,20.8,30.05,SSW,201,0.0,1.0,71,0.00,,OVC021,0.00,VWS V14.01,2013-01-25 09:40:00,
2013-01-25 03:45:00,29.0,20.8,30.05,SSW,201,0.0,1.0,71,0.00,,OVC021,0.00,VWS V14.01,2013-01-25 09:45:00,
2013-01-25 03:50:00,29.0,20.8,30.06,SSW,201,0.0,1.0,71,0.00,,OVC021,0.00,VWS V14.01,2013-01-25 09:50:00,
2013-01-25 03:55:00,29.0,21.1,30.06,SSW,201,0.0,1.0,72,0.00,,OVC021,0.00,VWS V14.01,2013-01-25 09:55:00,
2013-01-25 04:00:00,29.1,21.2,30.05,SSW,201,0.0,1.0,72,0.00,,OVC021,0.00,VWS V14.01,2013-01-25 10:00:00,
2013-01-25 04:05:00,29.1,21.5,30.04,SSW,201,0.0,0.0,73,0.00,,OVC021,0.00,VWS V14.01,2013-01-25 10:05:00,
2013-01-25 04:10:00,29.0,21.4,30.05,SSW,201,0.0,0.0,73,0.00,,OVC021,0.00,VWS V14.01,2013-01-25 10:10:00,
2013-01-25 04:15:00,29.0,22.1,30.05,SSW,201,0.0,0.0,75,0.00,,OVC021,0.00,VWS V14.01,2013-01-25 10:15:00,
2013-01-25 04:21:00,28.9,22.3,30.04,SSW,201,0.0,1.0,76,0.00,,OVC021,0.00,VWS V14.01,2013-01-25 10:21:00,
2013-01-25 04:26:00,28.8,22.5,30.04,South,180,0.0,1.0,77,0.00,,OVC021,0.00,VWS V14.01,2013-01-25 10:26:00,
2013-01-25 04:30:00,28.0,24.9,30.05,NW,306,0.0,2.0,88,0.00,,CLR,0.00,VWS V14.01,2013-01-25 10:30:00,
2013-01-25 04:31:00,28.8,22.8,30.05,South,188,0.0,1.0,78,0.00,,OVC021,0.00,VWS V14.01,2013-01-25 10:31:00,
2013-01-25 04:36:00,28.7,23.0,30.06,NW,323,0.0,2.0,79,0.00,,OVC021,0.00,VWS V14.01,2013-01-25 10:36:00,
2013-01-25 04:41:00,28.7,23.3,30.05,NNW,336,1.0,4.0,80,0.00,,,0.00,VWS V14.01,2013-01-25 10:41:00,
2013-01-25 04:46:00,28.7,23.6,30.05,NNW,333,0.0,4.0,81,0.00,,,0.00,VWS V14.01,2013-01-25 10:46:00,
2013-01-25 04:51:00,28.7,24.2,30.06,NW,311,1.0,4.0,83,0.00,,,0.00,VWS V14.01,2013-01-25 10:51:00,
2013-01-25 04:56:00,28.6,24.4,30.06,NNW,329,0.0,4.0,84,0.00,,,0.00,VWS V14.01,2013-01-25 10:56:00,
2013-01-25 05:00:00,28.0,24.9,30.06,West,277,2.0,2.0,88,0.00,,CLR,0.00,VWS V14.01,2013-01-25 11:00:00,
2013-01-25 05:02:00,28.5,24.6,30.06,North,5,1.0,1.0,85,0.00,,,0.00,VWS V14.01,2013-01-25 11:02:00,
2013-01-25 05:07:00,28.3,24.7,30.06,NW,306,0.0,2.0,86,0.00,,,0.00,VWS V14.01,2013-01-25 11:07:00,
2013-01-25 05:12:00,28.2,24.6,30.06,NW,306,0.0,2.0,86,0.00,,,0.00,VWS V14.01,2013-01-25 11:12:00,
2013-01-25 05:17:00,28.1,24.7,30.06,NW,306,0.0,2.0,87,0.00,,,0.00,VWS V14.01,2013-01-25 11:17:00,
2013-01-25 05:22:00,28.0,24.6,30.06,NW,306,0.0,2.0,87,0.00,,,0.00,VWS V14.01,2013-01-25 11:22:00,
2013-01-25 05:27:00,28.0,24.6,30.05,NW,306,0.0,2.0,87,0.00,,,0.00,VWS V14.01,2013-01-25 11:27:00,
2013-01-25 05:30:00,28.1,25.3,30.06,West,275,0.0,2.0,89,0.00,,CLR,0.00,VWS V14.01,2013-01-25 11:30:00,
2013-01-25 05:32:00,28.0,24.9,30.05,NW,306,0.0,0.0,88,0.00,,,0.00,VWS V14.01,2013-01-25 11:32:00,
2013-01-25 05:37:00,27.9,24.5,30.05,NW,306,0.0,0.0,87,0.00,,,0.00,VWS V14.01,2013-01-25 11:37:00,
2013-01-25 05:43:00,27.9,24.8,30.05,NW,306,0.0,0.0,88,0.00,,,0.00,VWS V14.01,2013-01-25 11:43:00,
2013-01-25 05:48:00,27.9,24.8,30.04,NW,306,0.0,0.0,88,0.00,,,0.00,VWS V14.01,2013-01-25 11:48:00,
2013-01-25 05:53:00,27.9,24.8,30.05,NW,306,0.0,0.0,88,0.00,,,0.00,VWS V14.01,2013-01-25 11:53:00,
2013-01-25 05:58:00,27.9,24.8,30.06,West,277,0.0,1.0,88,0.00,,,0.00,VWS V14.01,2013-01-25 11:58:00,
2013-01-25 06:00:00,28.1,25.3,30.06,West,277,0.0,1.0,89,0.00,,CLR,0.00,VWS V14.01,2013-01-25 12:00:00,
2013-01-25 06:03:00,28.0,24.9,30.06,WNW,290,0.0,2.0,88,0.00,,,0.00,VWS V14.01,2013-01-25 12:03:00,
2013-01-25 06:08:00,28.0,24.9,30.05,WNW,290,0.0,2.0,88,0.00,,,0.00,VWS V14.01,2013-01-25 12:08:00,
2013-01-25 06:13:00,28.0,24.9,30.05,WNW,290,0.0,2.0,88,0.00,,,0.00,VWS V14.01,2013-01-25 12:13:00,
2013-01-25 06:18:00,28.1,25.3,30.05,WNW,290,0.0,2.0,89,0.00,,,0.00,VWS V14.01,2013-01-25 12:18:00,
2013-01-25 06:23:00,28.1,25.3,30.05,WNW,290,0.0,2.0,89,0.00,,,0.00,VWS V14.01,2013-01-25 12:23:00,
2013-01-25 06:28:00,28.1,25.3,30.05,West,275,1.0,2.0,89,0.00,,,0.00,VWS V14.01,2013-01-25 12:28:00,
2013-01-25 06:30:00,28.3,25.2,30.08,NW,304,0.0,5.0,88,0.00,,CLR,0.00,VWS V14.01,2013-01-25 12:30:00,
2013-01-25 06:34:00,28.0,25.2,30.06,West,275,0.0,0.0,89,0.00,,,0.00,VWS V14.01,2013-01-25 12:34:00,
2013-01-25 06:39:00,28.1,25.3,30.06,West,277,0.0,1.0,89,0.00,,,0.00,VWS V14.01,2013-01-25 12:39:00,
2013-01-25 06:44:00,28.1,25.3,30.06,West,277,0.0,1.0,89,0.00,,,0.00,VWS V14.01,2013-01-25 12:44:00,
2013-01-25 06:49:00,28.1,25.3,30.06,West,277,0.0,1.0,89,0.00,,,0.00,VWS V14.01,2013-01-25 12:49:00,
2013-01-25 06:54:00,28.1,25.3,30.05,West,277,0.0,1.0,89,0.00,,,0.00,VWS V14.01,2013-01-25 12:54:00,
2013-01-25 06:59:00,28.1,25.3,30.06,West,277,0.0,1.0,89,0.00,,,0.00,VWS V14.01,2013-01-25 12:59:00,
2013-01-25 07:00:00,28.6,25.5,30.08,WSW,242,1.0,3.0,88,0.00,,CLR,0.00,VWS V14.01,2013-01-25 13:00:00,
2013-01-25 07:04:00,28.1,25.3,30.06,West,267,1.0,2.0,89,0.00,,,0.00,VWS V14.01,2013-01-25 13:04:00,
2013-01-25 07:09:00,28.1,25.3,30.07,West,267,0.0,3.0,89,0.00,,,0.00,VWS V14.01,2013-01-25 13:09:00,
2013-01-25 07:14:00,28.1,25.3,30.07,WSW,244,1.0,3.0,89,0.00,,,0.00,VWS V14.01,2013-01-25 13:14:00,
2013-01-25 07:19:00,28.2,25.1,30.08,West,277,1.0,3.0,88,0.00,,,0.00,VWS V14.01,2013-01-25 13:19:00,
2013-01-25 07:24:00,28.2,25.4,30.08,NW,315,1.0,5.0,89,0.00,,,0.00,VWS V14.01,2013-01-25 13:24:00,
2013-01-25 07:30:00,28.3,25.2,30.08,NW,304,0.0,5.0,88,0.00,,,0.00,VWS V14.01,2013-01-25 13:30:00,
2013-01-25 07:35:00,28.3,25.2,30.08,West,279,1.0,3.0,88,0.00,,,0.00,VWS V14.01,2013-01-25 13:35:00,
2013-01-25 07:40:00,28.3,25.2,30.08,West,279,0.0,3.0,88,0.00,,,0.00,VWS V14.01,2013-01-25 13:40:00,
2013-01-25 07:45:00,28.4,25.3,30.08,West,261,1.0,3.0,88,0.00,,,0.00,VWS V14.01,2013-01-25 13:45:00,
2013-01-25 07:50:00,28.5,25.4,30.08,WSW,257,2.0,3.0,88,0.00,,,0.00,VWS V14.01,2013-01-25 13:50:00,
2013-01-25 07:55:00,28.5,25.4,30.08,West,271,0.0,3.0,88,0.00,,,0.00,VWS V14.01,2013-01-25 13:55:00,
2013-01-25 08:00:00,28.7,25.6,30.08,WSW,242,1.0,2.0,88,0.00,,,0.00,VWS V14.01,2013-01-25 14:00:00,
2013-01-25 08:05:00,28.8,25.7,30.08,WSW,252,2.0,3.0,88,0.00,,,0.00,VWS V14.01,2013-01-25 14:05:00,
2013-01-25 08:10:00,28.8,26.0,30.08,SW,216,1.0,3.0,89,0.00,,,0.00,VWS V14.01,2013-01-25 14:10:00,
2013-01-25 08:16:00,29.0,26.2,30.08,West,260,2.0,4.0,89,0.00,,,0.00,VWS V14.01,2013-01-25 14:16:00,
2013-01-25 08:21:00,29.1,26.0,30.08,SW,225,0.0,4.0,88,0.00,,,0.00,VWS V14.01,2013-01-25 14:21:00,
2013-01-25 08:26:00,29.2,26.1,30.08,West,263,0.0,4.0,88,0.00,,,0.00,VWS V14.01,2013-01-25 14:26:00,
2013-01-25 08:30:00,32.2,28.5,30.11,WNW,293,2.0,6.0,86,0.00,,CLR,0.00,VWS V14.01,2013-01-25 14:30:00,
2013-01-25 08:31:00,29.5,26.4,30.08,West,267,0.0,1.0,88,0.00,,,0.00,VWS V14.01,2013-01-25 14:31:00,
2013-01-25 08:36:00,29.6,26.5,30.09,WSW,249,0.0,3.0,88,0.00,,,0.00,VWS V14.01,2013-01-25 14:36:00,
2013-01-25 08:41:00,29.8,26.7,30.09,West,270,1.0,3.0,88,0.00,,,0.00,VWS V14.01,2013-01-25 14:41:00,
2013-01-25 08:47:00,29.9,26.5,30.10,WNW,286,2.0,3.0,87,0.00,,,0.00,VWS V14.01,2013-01-25 14:47:00,
2013-01-25 08:52:00,30.0,26.6,30.10,West,265,0.0,4.0,87,0.00,,,0.00,VWS V14.01,2013-01-25 14:52:00,
2013-01-25 08:57:00,30.1,26.7,30.11,WNW,287,0.0,4.0,87,0.00,,,0.00,VWS V14.01,2013-01-25 14:57:00,
2013-01-25 09:00:00,33.4,29.4,30.12,WNW,283,2.0,5.0,85,0.00,,CLR,0.00,VWS V14.01,2013-01-25 15:00:00,
2013-01-25 09:02:00,30.4,27.0,30.11,NW,321,2.0,4.0,87,0.00,,,0.00,VWS V14.01,2013-01-25 15:02:00,
2013-01-25 09:07:00,30.7,27.6,30.11,WNW,297,1.0,5.0,88,0.00,,,0.00,VWS V14.01,2013-01-25 15:07:00,
2013-01-25 09:12:00,31.0,27.9,30.10,North,355,1.0,5.0,88,0.00,,,0.00,VWS V14.01,2013-01-25 15:12:00,
2013-01-25 09:17:00,31.5,28.1,30.11,WNW,286,2.0,5.0,87,0.00,,,0.00,VWS V14.01,2013-01-25 15:17:00,
2013-01-25 09:22:00,31.8,28.4,30.11,WNW,300,3.0,6.0,87,0.00,,,0.00,VWS V14.01,2013-01-25 15:22:00,
2013-01-25 09:27:00,32.1,28.1,30.11,WNW,290,3.0,6.0,85,0.00,,,0.00,VWS V14.01,2013-01-25 15:27:00,
2013-01-25 09:30:00,36.1,30.5,30.12,NW,317,3.0,10.0,80,0.00,,CLR,0.00,VWS V14.01,2013-01-25 15:30:00,
2013-01-25 09:33:00,32.3,28.6,30.11,WNW,290,1.0,5.0,86,0.00,,,0.00,VWS V14.01,2013-01-25 15:33:00,
2013-01-25 09:38:00,32.5,28.5,30.11,West,277,0.0,5.0,85,0.00,,,0.00,VWS V14.01,2013-01-25 15:38:00,
2013-01-25 09:43:00,32.7,28.7,30.11,West,280,2.0,5.0,85,0.00,,,0.00,VWS V14.01,2013-01-25 15:43:00,
2013-01-25 09:48:00,32.8,28.8,30.11,NW,321,0.0,5.0,85,0.00,,,0.00,VWS V14.01,2013-01-25 15:48:00,
2013-01-25 09:53:00,33.0,29.0,30.12,WNW,288,2.0,5.0,85,0.00,,,0.00,VWS V14.01,2013-01-25 15:53:00,
2013-01-25 09:58:00,33.3,29.3,30.11,NW,304,1.0,5.0,85,0.00,,,0.00,VWS V14.01,2013-01-25 15:58:00,
2013-01-25 10:00:00,37.8,30.6,30.11,North,351,5.0,8.0,75,0.00,,CLR,0.00,VWS V14.01,2013-01-25 16:00:00,
2013-01-25 10:03:00,33.7,29.7,30.12,West,274,3.0,5.0,85,0.00,,,0.00,VWS V14.01,2013-01-25 16:03:00,
2013-01-25 10:08:00,34.1,29.8,30.12,NNW,334,2.0,6.0,84,0.00,,,0.00,VWS V14.01,2013-01-25 16:08:00,
2013-01-25 10:14:00,34.6,30.3,30.12,WNW,289,0.0,6.0,84,0.00,,,0.00,VWS V14.01,2013-01-25 16:14:00,
2013-01-25 10:19:00,35.1,30.5,30.12,NW,312,0.0,8.0,83,0.00,,,0.00,VWS V14.01,2013-01-25 16:19:00,
2013-01-25 10:24:00,35.6,30.7,30.12,West,275,0.0,8.0,82,0.00,,,0.00,VWS V14.01,2013-01-25 16:24:00,
2013-01-25 10:29:00,36.1,30.5,30.12,NW,308,7.0,10.0,80,0.00,,,0.00,VWS V14.01,2013-01-25 16:29:00,
2013-01-25 10:30:00,39.1,30.9,30.11,North,351,3.0,9.0,72,0.00,,CLR,0.00,VWS V14.01,2013-01-25 16:30:00,
2013-01-25 10:34:00,36.3,30.7,30.12,NW,306,1.0,6.0,80,0.00,,,0.00,VWS V14.01,2013-01-25 16:34:00,
2013-01-25 10:39:00,36.7,30.8,30.11,NNW,327,4.0,6.0,79,0.00,,,0.00,VWS V14.01,2013-01-25 16:39:00,
2013-01-25 10:44:00,37.0,30.8,30.11,WNW,284,4.0,7.0,78,0.00,,,0.00,VWS V14.01,2013-01-25 16:44:00,
2013-01-25 10:50:00,37.2,30.7,30.11,NW,316,7.0,8.0,77,0.00,,,0.00,VWS V14.01,2013-01-25 16:50:00,
2013-01-25 10:55:00,37.4,30.5,30.11,NNW,340,5.0,8.0,76,0.00,,,0.00,VWS V14.01,2013-01-25 16:55:00,
2013-01-25 11:00:00,37.7,30.8,30.11,NNW,328,5.0,8.0,76,0.00,,,0.00,VWS V14.01,2013-01-25 17:00:00,
2013-01-25 11:05:00,38.0,31.1,30.11,North,360,3.0,8.0,76,0.00,,,0.00,VWS V14.01,2013-01-25 17:05:00,
2013-01-25 11:10:00,38.5,31.0,30.11,NW,321,2.0,9.0,74,0.00,,,0.00,VWS V14.01,2013-01-25 17:10:00,
2013-01-25 11:15:00,38.9,31.0,30.11,NNW,327,2.0,9.0,73,0.00,,,0.00,VWS V14.01,2013-01-25 17:15:00,
2013-01-25 11:20:00,39.2,30.6,30.11,North,360,4.0,9.0,71,0.00,,,0.00,VWS V14.01,2013-01-25 17:20:00,
2013-01-25 11:25:00,39.0,30.4,30.11,North,360,1.0,9.0,71,0.00,,,0.00,VWS V14.01,2013-01-25 17:25:00,
2013-01-25 11:30:00,39.1,30.9,30.11,WNW,295,1.0,4.0,72,0.00,,,0.00,VWS V14.01,2013-01-25 17:30:00,
2013-01-25 11:36:00,39.5,30.9,30.11,WNW,298,3.0,7.0,71,0.00,,,0.00,VWS V14.01,2013-01-25 17:36:00,
2013-01-25 11:41:00,39.5,30.9,30.11,West,276,3.0,7.0,71,0.00,,,0.00,VWS V14.01,2013-01-25 17:41:00,
2013-01-25 11:46:00,39.8,31.2,30.11,West,275,5.0,7.0,71,0.00,,,0.00,VWS V14.01,2013-01-25 17:46:00,
2013-01-25 11:51:00,39.8,30.8,30.11,West,267,2.0,9.0,70,0.00,,,0.00,VWS V14.01,2013-01-25 17:51:00,
2013-01-25 11:56:00,39.8,30.8,30.11,NW,316,3.0,9.0,70,0.00,,,0.00,VWS V14.01,2013-01-25 17:56:00,
2013-01-25 12:00:00,43.6,33.0,30.08,North,5,1.0,8.0,66,0.00,,CLR,0.00,VWS V14.01,2013-01-25 18:00:00,
2013-01-25 12:01:00,40.2,31.6,30.10,West,261,1.0,2.0,71,0.00,,,0.00,VWS V14.01,2013-01-25 18:01:00,
2013-01-25 12:06:00,40.6,31.2,30.10,North,355,5.0,7.0,69,0.00,,,0.00,VWS V14.01,2013-01-25 18:06:00,
2013-01-25 12:11:00,40.9,31.5,30.10,NW,323,5.0,8.0,69,0.00,,,0.00,VWS V14.01,2013-01-25 18:11:00,
2013-01-25 12:17:00,40.7,31.0,30.10,West,280,0.0,9.0,68,0.00,,,0.00,VWS V14.01,2013-01-25 18:17:00,
2013-01-25 12:22:00,40.9,31.9,30.10,WNW,303,4.0,9.0,70,0.00,,,0.00,VWS V14.01,2013-01-25 18:22:00,
2013-01-25 12:27:00,41.2,31.8,30.10,NW,304,0.0,9.0,69,0.00,,,0.00,VWS V14.01,2013-01-25 18:27:00,
2013-01-25 12:30:00,43.8,32.4,30.09,West,259,3.0,9.0,64,0.00,,CLR,0.00,VWS V14.01,2013-01-25 18:30:00,
2013-01-25 12:32:00,41.3,31.9,30.10,North,360,3.0,5.0,69,0.00,,,0.00,VWS V14.01,2013-01-25 18:32:00,
2013-01-25 12:37:00,41.9,32.5,30.10,WNW,303,0.0,5.0,69,0.00,,,0.00,VWS V14.01,2013-01-25 18:37:00,
2013-01-25 12:42:00,42.8,32.6,30.10,NNW,331,2.0,6.0,67,0.00,,,0.00,VWS V14.01,2013-01-25 18:42:00,
2013-01-25 12:47:00,43.3,32.7,30.09,WSW,257,3.0,8.0,66,0.00,,,0.00,VWS V14.01,2013-01-25 18:47:00,
2013-01-25 12:52:00,43.2,32.2,30.09,North,11,1.0,8.0,65,0.00,,,0.00,VWS V14.01,2013-01-25 18:52:00,
2013-01-25 12:57:00,43.5,32.9,30.09,North,5,2.0,8.0,66,0.00,,,0.00,VWS V14.01,2013-01-25 18:57:00,
2013-01-25 13:00:00,44.6,32.8,30.09,WNW,297,3.0,9.0,63,0.00,,CLR,0.00,VWS V14.01,2013-01-25 19:00:00,
2013-01-25 13:03:00,43.7,33.1,30.08,NW,323,2.0,6.0,66,0.00,,,0.00,VWS V14.01,2013-01-25 19:03:00,
2013-01-25 13:08:00,43.9,32.5,30.08,North,351,1.0,7.0,64,0.00,,,0.00,VWS V14.01,2013-01-25 19:08:00,
2013-01-25 13:13:00,43.6,32.2,30.08,NNW,332,6.0,9.0,64,0.00,,,0.00,VWS V14.01,2013-01-25 19:13:00,
2013-01-25 13:18:00,43.7,32.7,30.09,NW,305,2.0,9.0,65,0.00,,,0.00,VWS V14.01,2013-01-25 19:18:00,
2013-01-25 13:23:00,43.8,32.8,30.09,WNW,291,0.0,9.0,65,0.00,,,0.00,VWS V14.01,2013-01-25 19:23:00,
2013-01-25 13:28:00,43.9,32.5,30.09,NW,307,1.0,9.0,64,0.00,,,0.00,VWS V14.01,2013-01-25 19:28:00,
2013-01-25 13:30:00,44.9,32.7,30.09,NW,315,4.0,11.0,62,0.00,,CLR,0.00,VWS V14.01,2013-01-25 19:30:00,
2013-01-25 13:34:00,43.8,32.8,30.09,NW,317,4.0,5.0,65,0.00,,,0.00,VWS V14.01,2013-01-25 19:34:00,
2013-01-25 13:39:00,43.9,32.5,30.09,NW,323,5.0,6.0,64,0.00,,,0.00,VWS V14.01,2013-01-25 19:39:00,
2013-01-25 13:44:00,43.9,32.5,30.09,NNW,341,3.0,7.0,64,0.00,,FEW019,0.00,VWS V14.01,2013-01-25 19:44:00,
2013-01-25 13:49:00,44.2,32.8,30.09,NW,322,5.0,9.0,64,0.00,,FEW019,0.00,VWS V14.01,2013-01-25 19:49:00,
2013-01-25 13:54:00,44.4,32.6,30.09,NNE,19,2.0,9.0,63,0.00,,FEW019,0.00,VWS V14.01,2013-01-25 19:54:00,
2013-01-25 13:59:00,44.6,32.8,30.09,WNW,302,9.0,9.0,63,0.00,,FEW019,0.00,VWS V14.01,2013-01-25 19:59:00,
2013-01-25 14:00:00,47.2,33.2,30.08,West,261,2.0,10.0,58,0.00,,CLR,0.00,VWS V14.01,2013-01-25 20:00:00,
2013-01-25 14:04:00,44.9,33.1,30.09,NW,326,5.0,7.0,63,0.00,,FEW019,0.00,VWS V14.01,2013-01-25 20:04:00,
2013-01-25 14:09:00,45.2,33.0,30.09,WNW,296,2.0,11.0,62,0.00,,FEW019,0.00,VWS V14.01,2013-01-25 20:09:00,
2013-01-25 14:14:00,45.2,32.6,30.09,NW,318,5.0,11.0,61,0.00,,FEW019,0.00,VWS V14.01,2013-01-25 20:14:00,
2013-01-25 14:20:00,45.0,32.8,30.09,NW,314,3.0,11.0,62,0.00,,FEW019,0.00,VWS V14.01,2013-01-25 20:20:00,
2013-01-25 14:25:00,44.9,32.7,30.09,NW,317,5.0,11.0,62,0.00,,FEW019,0.00,VWS V14.01,2013-01-25 20:25:00,
2013-01-25 14:30:00,44.9,32.7,30.09,NW,315,4.0,11.0,62,0.00,,FEW019,0.00,VWS V14.01,2013-01-25 20:30:00,
2013-01-25 14:35:00,44.9,32.7,30.09,West,275,4.0,8.0,62,0.00,,FEW019,0.00,VWS V14.01,2013-01-25 20:35:00,
2013-01-25 14:40:00,45.1,32.9,30.09,NNW,336,6.0,8.0,62,0.00,,FEW019,0.00,VWS V14.01,2013-01-25 20:40:00,
2013-01-25 14:45:00,45.6,32.9,30.08,West,273,0.0,8.0,61,0.00,,FEW019,0.00,VWS V14.01,2013-01-25 20:45:00,
2013-01-25 14:50:00,46.5,33.4,30.09,WNW,302,1.0,8.0,60,0.00,,CLR,0.00,VWS V14.01,2013-01-25 20:50:00,
2013-01-25 14:55:00,47.1,33.1,30.08,NW,319,7.0,10.0,58,0.00,,CLR,0.00,VWS V14.01,2013-01-25 20:55:00,
2013-01-25 15:00:00,47.2,33.2,30.08,WNW,298,2.0,2.0,58,0.00,,CLR,0.00,VWS V14.01,2013-01-25 21:00:00,
2013-01-25 15:05:00,47.3,33.7,30.08,NW,313,0.0,4.0,59,0.00,,CLR,0.00,VWS V14.01,2013-01-25 21:05:00,
2013-01-25 15:11:00,47.3,32.8,30.08,NW,319,5.0,8.0,57,0.00,,CLR,0.00,VWS V14.01,2013-01-25 21:11:00,
2013-01-25 15:16:00,47.2,32.8,30.08,NW,308,0.0,8.0,57,0.00,,CLR,0.00,VWS V14.01,2013-01-25 21:16:00,
2013-01-25 15:21:00,47.2,32.8,30.08,NNW,328,4.0,8.0,57,0.00,,CLR,0.00,VWS V14.01,2013-01-25 21:21:00,
2013-01-25 15:26:00,47.2,33.2,30.08,West,276,1.0,8.0,58,0.00,,CLR,0.00,VWS V14.01,2013-01-25 21:26:00,
2013-01-25 15:30:00,44.8,33.0,30.09,West,262,0.0,5.0,63,0.00,,CLR,0.00,VWS V14.01,2013-01-25 21:30:00,
2013-01-25 15:31:00,47.2,33.2,30.08,WNW,298,5.0,6.0,58,0.00,,CLR,0.00,VWS V14.01,2013-01-25 21:31:00,
2013-01-25 15:36:00,47.0,32.6,30.09,WNW,286,1.0,6.0,57,0.00,,CLR,0.00,VWS V14.01,2013-01-25 21:36:00,
2013-01-25 15:41:00,46.6,32.6,30.09,WNW,296,1.0,6.0,58,0.00,,CLR,0.00,VWS V14.01,2013-01-25 21:41:00,
2013-01-25 15:46:00,46.3,32.8,30.09,WNW,288,2.0,6.0,59,0.00,,CLR,0.00,VWS V14.01,2013-01-25 21:46:00,
2013-01-25 15:51:00,46.2,32.7,30.09,NW,306,0.0,6.0,59,0.00,,CLR,0.00,VWS V14.01,2013-01-25 21:51:00,
2013-01-25 15:56:00,46.1,32.6,30.09,WNW,296,5.0,6.0,59,0.00,,CLR,0.00,VWS V14.01,2013-01-25 21:56:00,
2013-01-25 16:00:00,43.9,32.9,30.09,West,263,0.0,4.0,65,0.00,,CLR,0.00,VWS V14.01,2013-01-25 22:00:00,
2013-01-25 16:02:00,45.9,32.8,30.09,WNW,284,0.0,2.0,60,0.00,,CLR,0.00,VWS V14.01,2013-01-25 22:02:00,
2013-01-25 16:07:00,45.8,33.1,30.09,West,273,1.0,2.0,61,0.00,,CLR,0.00,VWS V14.01,2013-01-25 22:07:00,
2013-01-25 16:12:00,45.6,32.9,30.10,WSW,242,3.0,5.0,61,0.00,,CLR,0.00,VWS V14.01,2013-01-25 22:12:00,
2013-01-25 16:17:00,45.3,33.1,30.09,West,260,0.0,5.0,62,0.00,,CLR,0.00,VWS V14.01,2013-01-25 22:17:00,
2013-01-25 16:22:00,45.1,32.9,30.09,WSW,251,1.0,5.0,62,0.00,,CLR,0.00,VWS V14.01,2013-01-25 22:22:00,
2013-01-25 16:27:00,44.9,33.1,30.09,West,275,2.0,5.0,63,0.00,,CLR,0.00,VWS V14.01,2013-01-25 22:27:00,
2013-01-25 16:30:00,42.6,32.4,30.09,West,263,0.0,2.0,67,0.00,,CLR,0.00,VWS V14.01,2013-01-25 22:30:00,
2013-01-25 16:32:00,44.8,33.0,30.09,WNW,285,0.0,2.0,63,0.00,,CLR,0.00,VWS V14.01,2013-01-25 22:32:00,
2013-01-25 16:37:00,44.6,32.8,30.09,WSW,254,0.0,3.0,63,0.00,,CLR,0.00,VWS V14.01,2013-01-25 22:37:00,
2013-01-25 16:42:00,44.5,33.1,30.09,WSW,244,1.0,3.0,64,0.00,,CLR,0.00,VWS V14.01,2013-01-25 22:42:00,
2013-01-25 16:47:00,44.3,32.9,30.09,WSW,250,0.0,4.0,64,0.00,,CLR,0.00,VWS V14.01,2013-01-25 22:47:00,
2013-01-25 16:53:00,44.1,32.7,30.09,West,263,0.0,4.0,64,0.00,,CLR,0.00,VWS V14.01,2013-01-25 22:53:00,
2013-01-25 16:58:00,43.9,32.9,30.09,West,263,0.0,4.0,65,0.00,,CLR,0.00,VWS V14.01,2013-01-25 22:58:00,
2013-01-25 17:00:00,41.4,32.4,30.09,West,263,0.0,1.0,70,0.00,,CLR,0.00,VWS V14.01,2013-01-25 23:00:00,
2013-01-25 17:03:00,43.8,32.8,30.09,West,263,0.0,0.0,65,0.00,,CLR,0.00,VWS V14.01,2013-01-25 23:03:00,
2013-01-25 17:08:00,43.6,32.6,30.09,West,263,0.0,2.0,65,0.00,,CLR,0.00,VWS V14.01,2013-01-25 23:08:00,
2013-01-25 17:13:00,43.4,32.4,30.08,West,263,0.0,2.0,65,0.00,,CLR,0.00,VWS V14.01,2013-01-25 23:13:00,
2013-01-25 17:18:00,43.2,32.6,30.08,West,263,0.0,2.0,66,0.00,,CLR,0.00,VWS V14.01,2013-01-25 23:18:00,
2013-01-25 17:23:00,42.9,32.3,30.08,West,263,0.0,2.0,66,0.00,,CLR,0.00,VWS V14.01,2013-01-25 23:23:00,
2013-01-25 17:28:00,42.7,32.5,30.09,West,263,0.0,2.0,67,0.00,,CLR,0.00,VWS V14.01,2013-01-25 23:28:00,
2013-01-25 17:30:00,40.7,32.4,30.11,SW,228,0.0,1.0,72,0.00,,CLR,0.00,VWS V14.01,2013-01-25 23:30:00,
2013-01-25 17:33:00,42.4,32.2,30.09,West,263,0.0,0.0,67,0.00,,CLR,0.00,VWS V14.01,2013-01-25 23:33:00,
2013-01-25 17:38:00,42.1,32.3,30.09,West,263,0.0,1.0,68,0.00,,CLR,0.00,VWS V14.01,2013-01-25 23:38:00,
2013-01-25 17:44:00,41.9,32.1,30.09,West,263,0.0,1.0,68,0.00,,CLR,0.00,VWS V14.01,2013-01-25 23:44:00,
2013-01-25 17:49:00,41.7,32.3,30.09,West,263,0.0,1.0,69,0.00,,CLR,0.00,VWS V14.01,2013-01-25 23:49:00,
2013-01-25 17:54:00,41.5,32.1,30.09,West,263,0.0,1.0,69,0.00,,CLR,0.00,VWS V14.01,2013-01-25 23:54:00,
2013-01-25 17:59:00,41.4,32.4,30.09,West,263,0.0,1.0,70,0.00,,CLR,0.00,VWS V14.01,2013-01-25 23:59:00,
2013-01-25 18:00:00,40.5,32.2,30.10,WSW,248,0.0,2.0,72,0.00,,CLR,0.00,VWS V14.01,2013-01-26 00:00:00,
2013-01-25 18:04:00,41.2,32.2,30.10,WSW,244,0.0,1.0,70,0.00,,CLR,0.00,VWS V14.01,2013-01-26 00:04:00,
2013-01-25 18:09:00,41.1,32.1,30.10,WSW,246,0.0,1.0,70,0.00,,CLR,0.00,VWS V14.01,2013-01-26 00:09:00,
2013-01-25 18:14:00,40.9,32.2,30.10,SW,228,0.0,1.0,71,0.00,,CLR,0.00,VWS V14.01,2013-01-26 00:14:00,
2013-01-25 18:19:00,40.8,32.1,30.10,SW,228,0.0,1.0,71,0.00,,CLR,0.00,VWS V14.01,2013-01-26 00:19:00,
2013-01-25 18:24:00,40.7,32.4,30.10,SW,228,0.0,1.0,72,0.00,,CLR,0.00,VWS V14.01,2013-01-26 00:24:00,
2013-01-25 18:30:00,40.7,32.4,30.11,SW,228,0.0,1.0,72,0.00,,CLR,0.00,VWS V14.01,2013-01-26 00:30:00,
2013-01-25 18:35:00,40.9,32.6,30.11,SW,228,0.0,0.0,72,0.00,,CLR,0.00,VWS V14.01,2013-01-26 00:35:00,
2013-01-25 18:40:00,40.8,32.5,30.12,SW,232,0.0,0.0,72,0.00,,CLR,0.00,VWS V14.01,2013-01-26 00:40:00,
2013-01-25 18:45:00,40.7,32.4,30.11,WSW,240,0.0,0.0,72,0.00,,CLR,0.00,VWS V14.01,2013-01-26 00:45:00,
2013-01-25 18:50:00,40.6,32.3,30.11,WSW,243,1.0,2.0,72,0.00,,CLR,0.00,VWS V14.01,2013-01-26 00:50:00,
2013-01-25 18:55:00,40.5,31.9,30.11,WSW,248,0.0,2.0,71,0.00,,CLR,0.00,VWS V14.01,2013-01-26 00:55:00,
2013-01-25 19:00:00,40.5,32.2,30.10,WSW,248,0.0,0.0,72,0.00,,CLR,0.00,VWS V14.01,2013-01-26 01:00:00,
2013-01-25 19:05:00,40.4,31.8,30.11,WSW,248,0.0,0.0,71,0.00,,CLR,0.00,VWS V14.01,2013-01-26 01:05:00,
2013-01-25 19:10:00,40.3,32.0,30.10,WSW,252,0.0,2.0,72,0.00,,CLR,0.00,VWS V14.01,2013-01-26 01:10:00,
2013-01-25 19:16:00,40.0,31.4,30.11,WSW,252,0.0,2.0,71,0.00,,CLR,0.00,VWS V14.01,2013-01-26 01:16:00,
2013-01-25 19:21:00,39.7,31.4,30.11,WNW,288,0.0,2.0,72,0.00,,CLR,0.00,VWS V14.01,2013-01-26 01:21:00,
2013-01-25 19:26:00,39.5,31.6,30.11,West,281,0.0,2.0,73,0.00,,CLR,0.00,VWS V14.01,2013-01-26 01:26:00,
2013-01-25 19:30:00,40.6,32.0,30.11,West,277,0.0,3.0,71,0.00,,CLR,0.00,VWS V14.01,2013-01-26 01:30:00,
2013-01-25 19:31:00,39.3,31.0,30.11,West,281,0.0,0.0,72,0.00,,CLR,0.00,VWS V14.01,2013-01-26 01:31:00,
2013-01-25 19:36:00,39.0,31.1,30.12,West,274,1.0,2.0,73,0.00,,CLR,0.00,VWS V14.01,2013-01-26 01:36:00,
2013-01-25 19:41:00,38.7,31.1,30.12,WSW,253,0.0,2.0,74,0.00,,CLR,0.00,VWS V14.01,2013-01-26 01:41:00,
2013-01-25 19:46:00,38.7,31.1,30.12,WSW,252,0.0,2.0,74,0.00,,CLR,0.00,VWS V14.01,2013-01-26 01:46:00,
2013-01-25 19:51:00,38.6,31.4,30.12,WSW,254,0.0,2.0,75,0.00,,CLR,0.00,VWS V14.01,2013-01-26 01:51:00,
2013-01-25 19:56:00,38.7,31.5,30.12,WSW,254,0.0,2.0,75,0.00,,CLR,0.00,VWS V14.01,2013-01-26 01:56:00,
2013-01-25 20:00:00,40.4,31.8,30.12,West,277,0.0,2.0,71,0.00,,CLR,0.00,VWS V14.01,2013-01-26 02:00:00,
2013-01-25 20:01:00,38.7,31.5,30.11,West,262,1.0,1.0,75,0.00,,CLR,0.00,VWS V14.01,2013-01-26 02:01:00,
2013-01-25 20:07:00,39.0,31.8,30.11,West,275,1.0,3.0,75,0.00,,CLR,0.00,VWS V14.01,2013-01-26 02:07:00,
2013-01-25 20:12:00,39.3,31.7,30.11,WSW,251,0.0,3.0,74,0.00,,CLR,0.00,VWS V14.01,2013-01-26 02:12:00,
2013-01-25 20:17:00,39.9,31.6,30.11,West,273,1.0,3.0,72,0.00,,CLR,0.00,VWS V14.01,2013-01-26 02:17:00,
2013-01-25 20:22:00,40.3,31.7,30.11,West,274,1.0,3.0,71,0.00,,CLR,0.00,VWS V14.01,2013-01-26 02:22:00,
2013-01-25 20:27:00,40.6,32.0,30.11,West,275,0.0,3.0,71,0.00,,CLR,0.00,VWS V14.01,2013-01-26 02:27:00,
2013-01-25 20:30:00,39.7,31.4,30.13,WNW,293,0.0,3.0,72,0.00,,CLR,0.00,VWS V14.01,2013-01-26 02:30:00,
2013-01-25 20:32:00,40.7,31.7,30.11,West,277,0.0,1.0,70,0.00,,CLR,0.00,VWS V14.01,2013-01-26 02:32:00,
2013-01-25 20:37:00,40.7,31.7,30.11,West,277,0.0,2.0,70,0.00,,CLR,0.00,VWS V14.01,2013-01-26 02:37:00,
2013-01-25 20:42:00,40.7,31.7,30.11,West,277,1.0,2.0,70,0.00,,CLR,0.00,VWS V14.01,2013-01-26 02:42:00,
2013-01-25 20:47:00,40.7,31.7,30.11,West,277,0.0,2.0,70,0.00,,CLR,0.00,VWS V14.01,2013-01-26 02:47:00,
2013-01-25 20:53:00,40.6,32.0,30.12,West,277,0.0,2.0,71,0.00,,CLR,0.00,VWS V14.01,2013-01-26 02:53:00,
2013-01-25 20:58:00,40.5,31.9,30.12,West,277,0.0,2.0,71,0.00,,CLR,0.00,VWS V14.01,2013-01-26 02:58:00,
2013-01-25 21:00:00,39.8,31.5,30.15,WNW,294,0.0,1.0,72,0.00,,CLR,0.00,VWS V14.01,2013-01-26 03:00:00,
2013-01-25 21:03:00,40.4,31.8,30.12,West,277,0.0,0.0,71,0.00,,CLR,0.00,VWS V14.01,2013-01-26 03:03:00,
2013-01-25 21:08:00,40.2,31.6,30.12,West,277,0.0,0.0,71,0.00,,CLR,0.00,VWS V14.01,2013-01-26 03:08:00,
2013-01-25 21:13:00,40.0,31.7,30.12,West,277,0.0,0.0,72,0.00,,CLR,0.00,VWS V14.01,2013-01-26 03:13:00,
2013-01-25 21:18:00,39.8,31.5,30.13,West,277,0.0,0.0,72,0.00,,CLR,0.00,VWS V14.01,2013-01-26 03:18:00,
2013-01-25 21:23:00,39.7,31.4,30.13,West,277,0.0,1.0,72,0.00,,CLR,0.00,VWS V14.01,2013-01-26 03:23:00,
2013-01-25 21:28:00,39.7,31.4,30.14,WNW,284,1.0,3.0,72,0.00,,CLR,0.00,VWS V14.01,2013-01-26 03:28:00,
2013-01-25 21:30:00,39.2,31.6,30.15,WNW,295,0.0,1.0,74,0.00,,CLR,0.00,VWS V14.01,2013-01-26 03:30:00,
2013-01-25 21:33:00,39.7,31.4,30.14,WNW,293,0.0,1.0,72,0.00,,CLR,0.00,VWS V14.01,2013-01-26 03:33:00,
2013-01-25 21:39:00,39.7,31.4,30.14,WNW,293,0.0,1.0,72,0.00,,CLR,0.00,VWS V14.01,2013-01-26 03:39:00,
2013-01-25 21:44:00,39.8,31.5,30.15,WNW,293,0.0,1.0,72,0.00,,CLR,0.00,VWS V14.01,2013-01-26 03:44:00,
2013-01-25 21:49:00,39.8,31.5,30.15,WNW,296,0.0,1.0,72,0.00,,CLR,0.00,VWS V14.01,2013-01-26 03:49:00,
2013-01-25 21:54:00,39.8,31.5,30.15,WNW,296,0.0,1.0,72,0.00,,CLR,0.00,VWS V14.01,2013-01-26 03:54:00,
2013-01-25 21:59:00,39.8,31.5,30.15,WNW,294,0.0,1.0,72,0.00,,CLR,0.00,VWS V14.01,2013-01-26 03:59:00,
2013-01-25 22:00:00,38.7,31.1,30.16,WNW,295,0.0,0.0,74,0.00,,CLR,0.00,VWS V14.01,2013-01-26 04:00:00,
2013-01-25 22:04:00,39.7,31.4,30.15,WNW,294,0.0,1.0,72,0.00,,CLR,0.00,VWS V14.01,2013-01-26 04:04:00,
2013-01-25 22:09:00,39.7,31.4,30.15,WNW,293,0.0,1.0,72,0.00,,CLR,0.00,VWS V14.01,2013-01-26 04:09:00,
2013-01-25 22:14:00,39.5,31.6,30.15,WNW,293,0.0,1.0,73,0.00,,CLR,0.00,VWS V14.01,2013-01-26 04:14:00,
2013-01-25 22:19:00,39.4,31.5,30.15,WNW,293,0.0,1.0,73,0.00,,CLR,0.00,VWS V14.01,2013-01-26 04:19:00,
2013-01-25 22:24:00,39.3,31.4,30.15,WNW,295,1.0,1.0,73,0.00,,CLR,0.00,VWS V14.01,2013-01-26 04:24:00,
2013-01-25 22:29:00,39.2,31.6,30.15,WNW,295,0.0,1.0,74,0.00,,CLR,0.00,VWS V14.01,2013-01-26 04:29:00,
2013-01-25 22:30:00,38.4,30.5,30.16,WNW,295,0.0,1.0,73,0.00,,CLR,0.00,VWS V14.01,2013-01-26 04:30:00,
2013-01-25 22:35:00,39.1,31.2,30.15,WNW,295,0.0,0.0,73,0.00,,CLR,0.00,VWS V14.01,2013-01-26 04:35:00,
2013-01-25 22:40:00,39.0,31.1,30.16,WNW,295,0.0,0.0,73,0.00,,CLR,0.00,VWS V14.01,2013-01-26 04:40:00,
2013-01-25 22:45:00,38.9,31.0,30.16,WNW,294,0.0,0.0,73,0.00,,CLR,0.00,VWS V14.01,2013-01-26 04:45:00,
2013-01-25 22:50:00,38.8,30.9,30.16,WNW,295,0.0,0.0,73,0.00,,CLR,0.00,VWS V14.01,2013-01-26 04:50:00,
2013-01-25 22:55:00,38.8,31.2,30.16,WNW,295,0.0,0.0,74,0.00,,CLR,0.00,VWS V14.01,2013-01-26 04:55:00,
2013-01-25 23:00:00,38.7,31.1,30.16,WNW,295,0.0,0.0,74,0.00,,CLR,0.00,VWS V14.01,2013-01-26 05:00:00,
2013-01-25 23:01:00,38.7,31.1,30.16,WNW,295,0.0,0.0,74,0.00,,CLR,0.00,VWS V14.01,2013-01-26 05:01:00,
2013-01-25 23:02:00,38.7,31.1,30.16,WNW,295,0.0,1.0,74,0.00,,CLR,0.00,VWS V14.01,2013-01-26 05:02:00,
2013-01-25 23:07:00,38.7,30.8,30.16,WNW,295,0.0,1.0,73,0.00,,CLR,0.00,VWS V14.01,2013-01-26 05:07:00,
2013-01-25 23:12:00,38.6,30.7,30.16,WNW,295,0.0,1.0,73,0.00,,CLR,0.00,VWS V14.01,2013-01-26 05:12:00,
2013-01-25 23:17:00,38.6,30.7,30.16,WNW,295,0.0,1.0,73,0.00,,CLR,0.00,VWS V14.01,2013-01-26 05:17:00,
2013-01-25 23:22:00,38.6,30.7,30.16,WNW,295,0.0,1.0,73,0.00,,CLR,0.00,VWS V14.01,2013-01-26 05:22:00,
2013-01-25 23:27:00,38.4,30.5,30.16,WNW,295,0.0,1.0,73,0.00,,CLR,0.00,VWS V14.01,2013-01-26 05:27:00,
2013-01-25 23:30:00,37.4,29.9,30.17,WNW,294,0.0,2.0,74,0.00,,CLR,0.00,VWS V14.01,2013-01-26 05:30:00,
2013-01-25 23:32:00,38.3,30.4,30.16,WNW,295,0.0,0.0,73,0.00,,CLR,0.00,VWS V14.01,2013-01-26 05:32:00,
2013-01-25 23:38:00,38.3,30.1,30.16,WNW,295,0.0,0.0,72,0.00,,CLR,0.00,VWS V14.01,2013-01-26 05:38:00,
2013-01-25 23:43:00,38.3,30.1,30.16,WNW,295,0.0,0.0,72,0.00,,CLR,0.00,VWS V14.01,2013-01-26 05:43:00,
2013-01-25 23:48:00,38.2,30.0,30.16,WNW,295,0.0,0.0,72,0.00,,CLR,0.00,VWS V14.01,2013-01-26 05:48:00,
2013-01-25 23:53:00,38.2,30.0,30.17,WNW,295,0.0,0.0,72,0.00,,CLR,0.00,VWS V14.01,2013-01-26 05:53:00,
2013-01-25 23:58:00,38.1,29.9,30.17,WNW,295,0.0,0.0,72,0.00,,CLR,0.00,VWS V14.01,2013-01-26 05:58:00,